Volver al catálogo

CZ-6A DEB

ActivoPO
NORAD 64658·DEBRIS·🇨🇳 China

Lanzado Aug 6, 2024 desde Taiyuan Satellite Launch Center

Loading…

Próximos Pases (próximas 24 horas)

TLE

ActualizadoSource: Space-Track

Época: Sep 13, 2026, 23:26 UTC

1 64658U 24140AEY 26256.97666029  .00000707  00000-0  33594-3 0  9997
2 64658  88.9984 265.3929 0059123 266.5412  92.9013 14.17546762 97978

Sigue CZ-6A DEB en tiempo real con AllMySat

Download on the App Store